This demonstration page uses our WeatherBlox Daily Observations layout. Learn more.

Hourly Observations for February 15, 2017

Temp ( °F °C ) Dew Point ( °F °C ) Humidity (%) Winds ( mph kmh ) Pressure ( in mb ) Visibility ( mi km ) Precip ( " mm )
12:54 am 00:54 Clear 35 1.7 25 -3.9 67 67 N 12 19 30.13 1020 10 16.0934 0 0
1:54 am 01:54 Clear 36 2.2 26 -3.3 67 67 N 17 28 30.13 1020 10 16.0934 0 0
2:54 am 02:54 Clear 34 1.1 26 -3.3 73 73 NNW 15 24 30.13 1020 10 16.0934 0 0
3:54 am 03:54 Clear 31 -0.6 26 -3.3 82 82 N 13 20 30.14 1021 10 16.0934 0 0
4:54 am 04:54 Clear 31 -0.6 25 -3.9 79 79 N 8 13 30.14 1021 10 16.0934 0 0
5:54 am 05:54 Clear 27 -2.8 23 -5 85 85 Calm 30.16 1021 10 16.0934 0 0
6:54 am 06:54 Clear 28 -2.2 24 -4.4 85 85 W 5 7 30.16 1022 10 16.0934 0 0
7:54 am 07:54 Sunny 29 -1.7 24 -4.4 82 82 W 3 6 30.17 1022 10 16.0934 0 0
8:54 am 08:54 Sunny 34 1.1 27 -2.8 76 76 Calm 30.17 1022 10 16.0934 0 0
9:54 am 09:54 Sunny 38 3.3 26 -3.3 62 62 N 7 11 30.17 1022 10 16.0934 0 0
10:54 am 10:54 Sunny 42 5.6 25 -3.9 51 51 Calm 30.15 1021 10 16.0934 0 0
11:54 am 11:54 Sunny 46 7.8 23 -5 40 40 VRB 3 6 30.12 1020 10 16.0934 0 0
12:54 pm 12:54 Sunny 52 11.1 24 -4.4 34 34 W 9 15 30.09 1019 10 16.0934 0 0
1:54 pm 13:54 Sunny 53 11.7 27 -2.8 37 37 SW 9 15 30.05 1018 10 16.0934 0 0
2:54 pm 14:54 Sunny 54 12.2 29 -1.7 38 38 SW 7 11 30.03 1017 10 16.0934 0 0
3:54 pm 15:54 Sunny 55 12.8 28 -2.2 35 35 SSW 12 19 30 1016 10 16.0934 0 0
4:54 pm 16:54 Sunny 55 12.8 28 -2.2 35 35 S 10 17 29.98 1015 10 16.0934 0 0
5:54 pm 17:54 Sunny 47 8.3 27 -2.8 46 46 S 8 13 29.96 1015 10 16.0934 0 0
6:54 pm 18:54 Clear 41 5 26 -3.3 55 55 S 9 15 29.94 1014 10 16.0934 0 0
7:54 pm 19:54 Clear 38 3.3 26 -3.3 62 62 S 10 17 29.93 1014 10 16.0934 0 0
8:54 pm 20:54 Clear 38 3.3 25 -3.9 60 60 S 8 13 29.92 1013 10 16.0934 0 0
9:54 pm 21:54 Clear 42 5.6 26 -3.3 53 53 SSW 8 13 29.9 1013 10 16.0934 0 0
10:54 pm 22:54 Clear 43 6.1 26 -3.3 51 51 SSW 7 11 29.88 1012 10 16.0934 0 0
11:54 pm 23:54 Clear 40 4.4 26 -3.3 58 58 SSW 9 15 29.86 1011 10 16.0934 0 0

Powered by AerisWeather